Regional Weather Roundup
Issued by NWS

Home | Current Version | Previous Version | Graphics & Text | Print | Product List | Glossary Off
Versions: 1 2 3 4 5 6 7 8 9 10 11 12 13 14 15 16 17 18 19 20 21 22 23 24 25 26 27 28 29 30 31 32 33 34 35 36 37 38 39 40 41 42 43 44 45 46 47 48 49 50

000
ASUS43 KMKX 041200
RWRWI

WISCONSIN REGIONAL WEATHER ROUNDUP
NATIONAL WEATHER SERVICE MILWAUKEE/SULLIVAN WI
700 AM CDT SAT JUL 04 2015

NOTE: "FAIR" INDICATES FEW OR NO CLOUDS BELOW 12,000 FEET WITH NO
SIGNIFICANT WEATHER AND/OR OBSTRUCTIONS TO VISIBILITY.

WIZ001-002-006>008-014>016-023>028-041300-
NORTHWEST WISCONSIN

CITY           SKY/WX    TMP DP  RH WIND       PRES   REMARKS
SUPERIOR ARPT  SUNNY     60  58  93 E3        29.96R
ASHLAND        FOG       56  56 100 CALM      29.97R VSB 1
6HR MIN TEMP:  50; 6HR MAX TEMP:  58;

HAYWARD        SUNNY     54  52  93 CALM      29.97R FOG
6HR MIN TEMP:  51; 6HR MAX TEMP:  58;

SIREN          CLOUDY    55  54  98 CALM      29.95S FOG
CUMBERLAND     FOG       55  55 100 CALM      29.97R VSB<1/4
RICE LAKE      FOG       58  57  97 CALM      29.98R VSB<1/4
CHETEK         SUNNY     58  58 100 CALM      29.97R FOG
LADYSMITH      SUNNY     56  55  97 CALM      29.98S
EAU CLAIRE     NOT AVBL
MENOMONIE      SUNNY     60  58  94 CALM      29.96R
NEW RICHMOND   SUNNY     58  58  99 CALM      29.96R FOG
OSCEOLA        SUNNY     58  58 100 CALM      29.98R
$$

WIZ003>005-009-010-017-018-041300-
NORTH CENTRAL WISCONSIN

CITY           SKY/WX    TMP DP  RH WIND       PRES   REMARKS
MANITOWISH WTR MOSUNNY   53  53 100 CALM      29.98R FOG
ARBOR VITAE    MOSUNNY   56  55  95 CALM      29.98R
WOODRUFF       MOSUNNY   56  55  95 CALM      29.98R
RHINELANDER    FOG       57  56  96 CALM      29.99R VSB 1/2
6HR MIN TEMP:  50; 6HR MAX TEMP:  58;

EAGLE RIVER    FOG       52  52 100 CALM      29.98R VSB<1/4
LAND O LAKES   CLOUDY    51  51 100 CALM      29.99R FOG
PHILLIPS       SUNNY     55  55 100 CALM      29.98R
6HR MIN TEMP:  51; 6HR MAX TEMP:  59;

TOMAHAWK       FOG       52  52  98 CALM      29.98R VSB 1/4
MEDFORD        SUNNY     55  55 100 CALM      29.97R FOG
MERRILL        FOG       53  53 100 CALM      29.98R VSB 1/2
$$

WIZ029-030-035-036-043>047-041300-
CENTRAL WISCONSIN

CITY           SKY/WX    TMP DP  RH WIND       PRES   REMARKS
WAUSAU         SUNNY     60  57  89 E3        29.96R
6HR MIN TEMP:  57; 6HR MAX TEMP:  64;

MOSINEE        MOSUNNY   57  57 100 CALM      29.99R
MARSHFIELD     SUNNY     62  57  83 CALM      29.97R
6HR MIN TEMP:  58; 6HR MAX TEMP:  62;

STEVENS POINT  CLOUDY    55  54  94 CALM      29.98R
WAUPACA        MOSUNNY   59  59  98 CALM      29.97R
WAUTOMA        NOT AVBL
WISC RAPIDS    SUNNY     62  58  86 CALM      29.98R
6HR MIN TEMP:  57; 6HR MAX TEMP:  62;

CAMP DOUGLAS   MOSUNNY   55  55 100 CALM      29.96R
$$

WIZ011>013-019>022-031-037>040-048>050-041300-
NORTHEAST WISCONSIN

CITY           SKY/WX    TMP DP  RH WIND       PRES   REMARKS
ANTIGO         SUNNY     55  55 100 CALM      29.98R
SHAWANO        SUNNY     61  59  91 CALM      29.96R
OCONTO         MOSUNNY   58  58 100 CALM      29.94R
STURGEON BAY   SUNNY     63  59  88 NW3       29.97R
6HR MIN TEMP:  61; 6HR MAX TEMP:  63;

GREEN BAY      SUNNY     63  59  87 CALM      29.95R
6HR MIN TEMP:  59; 6HR MAX TEMP:  63;

MANITOWOC      NOT AVBL
APPLETON       MOSUNNY   63  61  94 W9        29.97R
CLINTONVILLE   SUNNY     61  57  88 CALM      29.96R
OSHKOSH        PTSUNNY   65  59  81 W5        29.96R
6HR MIN TEMP:  63; 6HR MAX TEMP:  65;

$$

WIZ032>034-041-042-053>061-041300-
SOUTHWEST WISCONSIN

CITY           SKY/WX    TMP DP  RH WIND       PRES   REMARKS
LA CROSSE      SUNNY     63  61  93 S7        29.96S
6HR MIN TEMP:  62; 6HR MAX TEMP:  65;

SPARTA         MOSUNNY   56  55  94 CALM      29.98R
VIROQUA        SUNNY     60  60 100 SW5       29.99R
BOSCOBEL       FOG       58  57  97 CALM      29.99R VSB<1/4
6HR MIN TEMP:  54; 6HR MAX TEMP:  58;

PRAIRIE DU CHI SUNNY     56  55  94 CALM      29.99R
PLATTEVILLE    SUNNY     56  55  94 CALM      29.99R
$$

WIZ056-057-062-063-064-067-068-041300-
SOUTH CENTRAL WISCONSIN

CITY           SKY/WX    TMP DP  RH WIND       PRES   REMARKS
REEDSBURG      SUNNY     56  55  97 CALM      29.97S
BARABOO/DELLS  SUNNY     59  56  90 SW3       29.97S
LONE ROCK      CLOUDY    55  54  94 W3        29.99S FOG
MINERAL POINT  SUNNY     61  55  82 CALM      30.00R
MADISON        SUNNY     60  55  83 CALM      29.97S
6HR MIN TEMP:  56; 6HR MAX TEMP:  60;

MIDDLETON      SUNNY     59  58  95 CALM      29.99R
WATERTOWN      SUNNY     56  56 100 CALM      29.98R
MONROE         SUNNY     63  54  72 W10       29.99R
JANESVILLE     SUNNY     57  55  94 CALM      29.98R
$$

WIZ051-052-058>065-066-070>072-041300-
SOUTHEAST WISCONSIN

CITY           SKY/WX    TMP DP  RH WIND       PRES   REMARKS
MILWAUKEE      MOSUNNY   65  55  70 W7        29.97S
6HR MIN TEMP:  60; 6HR MAX TEMP:  65;

WAUKESHA       SUNNY     57  54  88 CALM      29.99R
MILWAUKEE/TIMM SUNNY     63  55  77 CALM      29.98R
RACINE         SUNNY     62  54  74 W7        29.99R
6HR MIN TEMP:  58; 6HR MAX TEMP:  62;

BURLINGTON     SUNNY     52  52  99 CALM      29.98S FOG
KENOSHA        SUNNY     60  56  86 W5        29.98S FOG
6HR MIN TEMP:  54; 6HR MAX TEMP:  60;

FOND DU LAC    PTSUNNY   62  58  86 SW3       29.97R
6HR MIN TEMP:  60; 6HR MAX TEMP:  63;

SHEBOYGAN      MOSUNNY   63  59  87 W5        29.96R
6HR MIN TEMP:  58; 6HR MAX TEMP:  63;

WEST BEND      CLOUDY    61  55  82 CALM      29.98R
JUNEAU         SUNNY     56  54  94 SW3       29.99R
$$

LSZ147-162-041300-
LAKE SUPERIOR

STATION/POSITION TIME  TEMP    WIND        PRES    WAVE
                       AIR SEA DIR/SP/G            HT/PER
                 (UTC) (F)     (DEG/KT/KT) (MB)    (FT/S)
W MID LAKE BUOY  1050   40 38   20/  6/  6 1014.8R   0
DEVILS ISLAND    1100   58      30/  5/  5 1014.7R
SAXON HARBOR     1100   57     170/  3/  5 1013.9R
$$

LMZ867-665-643>646-041300-
LAKE MICHIGAN

STATION/POSITION TIME  TEMP    WIND        PRES    WAVE
                       AIR SEA DIR/SP/G            HT/PER
                 (UTC) (F)     (DEG/KT/KT) (MB)    (FT/S)
CHAMBERS ISLAND  1100   64     360/  8/  9 1013.9R
N MID LAKE BUOY  1050   51 43   CALM  /  2 1013.5R   1/ 4
NORTHPORT PIER   1100   62     340/  5/  6 1013.5R
SISTER BAY       1114   63        CALM       N/A
ALGOMA LAKESHORE 1126          300/  2/  5   N/A
KEWAUNEE LAKESHO 1100   62     290/  5/  7 1012.8R
SHEBOYGAN LAKESH 1100   63     260/ 10/ 11 1014.0R
PORT WASHINGTON  1100   63     290/  6/  8 1014.6R
ATWATER BUOY     1100   65 60  260/ 12/ 14 1015.6R
MILWAUKEE LAKESH 1100   65     290/  9/ 11   N/A
KENOSHA   LAKESH 1100   63     260/  8/  9 1014.6R
$$

TC  - TEMPERATURE IN CELSIUS
VSB - VISIBILITY IN STATUTE MILES
WCI - WIND CHILL INDEX
HX  - HEAT INDEX



USA.gov is the U.S. government's official web portal to all federal, state and local government web resources and services.